Content
SEND FEEDBACK

Daily
Averages
Monthly
Summary
United States of America

MAURICEVILLE, TEXAS


Home > North America > United States > Texas
Elevation: 6 meters     Latitude: 30 14N     Longitude: 093 44W

WEATHER
 
SELECT A DAY
Number of Records: 108,109;   Date Range: 8/25/05 - 7/27/14
 
SHARE

PRINT THIS DATA

[ ← Previous Day ]
WEATHER ALMANAC - 17 JANUARY, 2013
[ Next Day → ]
[ °F ]   °C
Weather ElementAverageHighLow
Temperature5.9 °C15 °C (2:35 pm)-1 °C (7:15 am)
Dewpoint0.1 °C3 °C (7:55 pm)-2 °C (10:55 am)
Humidity71.5 %100 % (7:15 am)38 % (1:15 pm)
Barometer1028.4 hPa1032.2 hPa (11:15 pm)1025.4 hPa (12:35 am)
Wind Speed7.6 km/h20.4 km/h (2:15 pm)
Wind Gust25.9 km/h (10:55 am)
Weather ElementAverage
Visibility16.1 km
Wind DirectionSSW (211.7 °)

Weather ElementTotal
Precipitation---
Heating Degree Days11.3 (Base 18.3)
Averaged from 58 records on 17 January, 2013
WEATHER CONDITIONS BREAKOUT
WIND DIRECTION BREAKOUT
WEATHER BY HOUR - 17 JANUARY, 2013
[ °F ]   °C
Local TimeTemperatureDewpointHumidityBarometerVisibilityWind DirectionWind SpeedGust SpeedPrecipitationEventsConditions
12:35 AM2 °C-1 °C81 %1025.4 hPa16.1 kmWest (270°)7.4 km/hClear
12:55 AM2 °C-1 °C81 %1025.4 hPa16.1 kmWNW (290°)5.6 km/hClear
1:15 AM2 °C-1 °C81 %1025.4 hPa16.1 kmWNW (290°)7.4 km/hClear
1:35 AM2 °C-1 °C81 %1025.7 hPa16.1 kmWest (270°)5.6 km/hClear
1:55 AM1 °C-1 °C87 %1025.7 hPa16.1 kmWNW (290°)7.4 km/hClear
2:15 AM1 °C-1 °C87 %1025.7 hPa16.1 kmWest (280°)5.6 km/hClear
2:35 AM1 °C-1 °C87 %1026.1 hPa16.1 kmWest (260°)5.6 km/hClear
2:55 AM1 °C-1 °C87 %1026.4 hPa16.1 kmCalmClear
3:35 AM0 °C-1 °C93 %1026.4 hPa16.1 kmCalmClear
3:55 AM0 °C-1 °C93 %1026.8 hPa16.1 kmCalmClear
4:15 AM0 °C-1 °C93 %1026.4 hPa16.1 kmWNW (290°)5.6 km/hClear
4:35 AM0 °C-1 °C93 %1026.8 hPa16.1 kmWest (280°)7.4 km/hClear
4:55 AM1 °C-1 °C87 %1026.4 hPa16.1 kmNW (310°)7.4 km/hClear
5:15 AM1 °C-1 °C87 %1027.1 hPa16.1 kmWest (280°)5.6 km/hClear
5:35 AM0 °C-1 °C93 %1027.1 hPa16.1 kmWest (280°)5.6 km/hClear
6:15 AM0 °C-1 °C93 %1027.4 hPa16.1 kmWest (270°)5.6 km/hClear
6:35 AM0 °C-1 °C93 %1027.8 hPa16.1 kmCalmClear
6:55 AM0 °C-1 °C93 %1028.1 hPa16.1 kmCalmClear
7:15 AM-1 °C-1 °C100 %1028.4 hPa16.1 kmCalmClear
7:35 AM0 °C-1 °C93 %1028.8 hPa16.1 kmWest (280°)5.6 km/hClear
7:55 AM1 °C-1 °C87 %1028.8 hPa16.1 kmWest (260°)5.6 km/hClear
8:15 AM1 °C0 °C93 %1029.1 hPa16.1 kmWest (270°)5.6 km/hClear
8:35 AM2 °C0 °C87 %1029.5 hPa16.1 kmWest (270°)7.4 km/hClear
8:55 AM4 °C0 °C75 %1029.8 hPa16.1 kmWest (280°)5.6 km/hClear
9:15 AM6 °C0 °C66 %1029.8 hPa16.1 kmWNW (300°)9.3 km/hClear
9:35 AM7 °C0 °C61 %1030.1 hPa16.1 kmWest (280°)9.3 km/hClear
9:55 AM8 °C0 °C57 %1030.1 hPa16.1 kmWNW (300°)13 km/hClear
10:15 AM9 °C0 °C54 %1030.1 hPa16.1 kmWNW (300°)11.1 km/hClear
10:35 AM10 °C-1 °C47 %1029.8 hPa16.1 kmWNW (300°)14.8 km/hClear
10:55 AM10 °C-2 °C43 %1030.1 hPa16.1 kmNW (310°)16.7 km/h25.9 km/hClear
11:15 AM11 °C-1 °C44 %1029.5 hPa16.1 kmWNW (300°)14.8 km/hClear
11:35 AM11 °C-1 °C44 %1029.1 hPa16.1 kmNNW (330°)16.7 km/hClear
11:55 AM12 °C-1 °C41 %1029.1 hPa16.1 kmWNW (290°)14.8 km/hClear
12:15 PM12 °C-1 °C41 %1028.4 hPa16.1 kmNW (320°)11.1 km/hClear
12:35 PM12 °C-1 °C41 %1028.1 hPa16.1 kmNW (320°)18.5 km/hClear
12:55 PM12 °C-1 °C41 %1027.8 hPa16.1 kmWNW (300°)18.5 km/hClear
1:15 PM13 °C-1 °C38 %1027.4 hPa16.1 kmWNW (290°)16.7 km/h25.9 km/hClear
1:35 PM13 °C0 °C41 %1027.4 hPa16.1 kmNW (310°)14.8 km/hClear
1:55 PM14 °C0 °C38 %1027.1 hPa16.1 kmNW (320°)16.7 km/hClear
2:15 PM14 °C0 °C38 %1027.1 hPa16.1 kmNW (320°)20.4 km/h25.9 km/hClear
2:35 PM15 °C1 °C39 %1027.1 hPa16.1 kmNNW (340°)13 km/hClear
2:55 PM15 °C1 °C39 %1027.1 hPa16.1 kmNorth (350°)13 km/h25.9 km/hClear
3:15 PM15 °C1 °C39 %1027.1 hPa16.1 kmNorth (350°)14.8 km/hClear
3:35 PM15 °C1 °C39 %1027.4 hPa16.1 kmNorth (350°)14.8 km/hClear
3:55 PM15 °C1 °C39 %1027.8 hPa16.1 kmNW (320°)13 km/hClear
4:55 PM14 °C2 °C44 %1028.4 hPa16.1 kmNNW (330°)13 km/hClear
5:35 PM12 °C2 °C51 %1029.1 hPa16.1 kmNNW (330°)9.3 km/hClear
6:15 PM11 °C2 °C54 %1029.5 hPa16.1 kmCalmClear
7:55 PM6 °C3 °C81 %1030.8 hPa16.1 kmCalmClear
8:15 PM5 °C3 °C87 %1031.2 hPa16.1 kmCalmClear
8:35 PM5 °C3 °C87 %1031.2 hPa16.1 kmCalmClear
8:55 PM4 °C3 °C93 %1031.5 hPa16.1 kmCalmClear
9:15 PM3 °C3 °C100 %1031.8 hPa16.1 kmCalmClear
9:35 PM3 °C3 °C100 %1031.8 hPa16.1 kmCalmClear
9:55 PM4 °C3 °C93 %1031.8 hPa16.1 kmCalmClear
11:15 PM3 °C3 °C100 %1032.2 hPa16.1 kmCalmClear
11:35 PM2 °C2 °C100 %1032.2 hPa16.1 kmCalmClear
11:55 PM2 °C2 °C100 %1032.2 hPa16.1 kmCalmClear
Hourly data recorded from KORG, located 0 kilometers away from Mauriceville, Texas







STORIES FROM OUR PARTNERS